Home > Weather > Dalian > Past weeks

Flag for China Past Weather in Dalian, Liaoning, China — Yesterday and Last 2 Weeks

Now
73 °F

Passing clouds.


Feels Like: 77 °F
Forecast: 67 / 76 °F
Wind: 8 mph from North

Location: Dalian Airport

Current Time: Jun 1, 2016 at 7:58:14 AM

Latest Report: Jun 1, 2016 at 7:30 AM


Visibility: N/A

Pressure: 29.86 "Hg

Humidity: 38%

Dew Point: 46 °F

Location of DalianLocation

Past Weather in Dalian — Graph

°F

Dalian Temperature Yesterday

Maximum temperature yesterday: 75 °F (at 9:30 AM)
Minimum temperature yesterday: 66 °F (at 2:30 AM)
Average temperature yesterday: 71 °F

High & Low Weather Summary for the Past Weeks

 TemperatureHumidityPressure
High84 °F (May 17, 12:30 PM)100% (May 23, 7:00 PM)30.12 "Hg (May 23, 7:00 PM)
Low55 °F (May 19, 5:00 AM)16% (May 21, 2:30 PM)29.59 "Hg (May 24, 2:30 PM)
Average70 °F48%29.86 "Hg
* Reported May 17 6:00 AM — Jun 1 6:30 AM, Dalian, Weather by CustomWeather, © 2016

Note: Actual official high and low records may vary slightly from our data, if they occured in-between our weather recording intervals... More about our weather records

Advertising

Dalian Weather History for the Previous 24 Hours

Scroll right to see more
 ConditionsComfort  
Time TempWeatherWind HumidityBarometerVisibility
6:30 AM
Wed, Jun 1
70 °FPassing clouds.6 mph40%29.86 "HgN/A
6:00 AM66 °FPassing clouds.3 mph49%29.86 "HgN/A
5:30 AM64 °FSunny.3 mph52%29.83 "Hg10 mi
5:00 AM63 °FSunny.3 mph56%29.83 "Hg10 mi
4:30 AM64 °FSunny.3 mph52%29.83 "Hg10 mi
4:00 AM64 °FClear.8 mph52%29.83 "Hg10 mi
3:30 AM64 °FClear.8 mph52%29.83 "Hg10 mi
3:00 AM64 °FClear.6 mph52%29.83 "Hg10 mi
2:30 AM64 °FClear.3 mph56%29.83 "Hg10 mi
2:00 AM66 °FClear.6 mph52%29.83 "Hg10 mi
1:30 AM66 °FPassing clouds.8 mph56%29.83 "HgN/A
1:00 AM68 °FClear.6 mph56%29.83 "Hg10 mi
12:30 AM68 °FPassing clouds.3 mph53%29.83 "HgN/A
12:00 AM68 °FPassing clouds.6 mph53%29.83 "HgN/A
11:30 PM
Tue, May 31
68 °FPassing clouds.3 mph49%29.83 "HgN/A
11:00 PM68 °FClear.1 mph53%29.83 "Hg10 mi
10:30 PM68 °FClear.3 mph53%29.83 "Hg10 mi
10:00 PM70 °FClear.3 mph46%29.83 "Hg10 mi
9:30 PM70 °FPassing clouds.3 mph50%29.83 "HgN/A
9:00 PM70 °FPassing clouds.3 mph50%29.83 "HgN/A
8:30 PM70 °FPassing clouds.6 mph50%29.83 "HgN/A
8:00 PM72 °FPassing clouds.6 mph44%29.83 "HgN/A
7:30 PM72 °FPassing clouds.6 mph41%29.83 "HgN/A
7:00 PM72 °FPassing clouds.6 mph41%29.83 "HgN/A
6:30 PM72 °FPassing clouds.3 mph38%29.83 "HgN/A
6:00 PM72 °FSunny.1 mph23%29.83 "Hg10 mi
5:30 PM72 °FSunny.3 mph23%29.83 "Hg10 mi
5:00 PM72 °FSunny.6 mph23%29.83 "Hg10 mi
4:30 PM72 °FPassing clouds.6 mph23%29.83 "HgN/A
4:00 PM72 °FPassing clouds.6 mph25%29.83 "HgN/A
3:30 PM72 °FSunny.10 mph25%29.83 "Hg10 mi
3:00 PM73 °FPassing clouds.10 mph25%29.83 "HgN/A
2:30 PM73 °FPassing clouds.10 mph25%29.83 "HgN/A
2:00 PM73 °FSunny.15 mph27%29.83 "Hg10 mi
1:30 PM73 °FPassing clouds.13 mph29%29.83 "HgN/A
1:00 PM73 °FSunny.15 mph27%29.83 "Hg10 mi
12:30 PM73 °FSunny.15 mph31%29.83 "Hg10 mi
12:00 PM72 °FSunny.17 mph36%29.83 "Hg10 mi
11:30 AM73 °FSunny.17 mph33%29.83 "Hg10 mi
11:00 AM75 °FSunny.20 mph29%29.83 "Hg10 mi
10:30 AM73 °FPassing clouds.15 mph27%29.83 "HgN/A
10:00 AM75 °FSunny.17 mph29%29.83 "Hg10 mi
9:30 AM75 °FSunny.17 mph31%29.83 "Hg10 mi
9:00 AM73 °FSunny.17 mph36%29.83 "Hg10 mi
8:30 AM73 °FClear.15 mph47%29.80 "Hg4 mi
8:00 AM73 °FHaze.15 mph53%29.83 "Hg3 mi
7:30 AM73 °FHaze.15 mph47%29.80 "Hg3 mi
7:00 AM72 °FFog.10 mph61%29.80 "Hg3 mi
Weather by CustomWeather, © 2016

See weather overviewHow to use our weather pages